Temperature
16 16 16 16 16 16 16 16 15 15 15 16 16 16 16 16 16 16 16 16 16 16 16 15 15 15 15 15 15 15 15 15 15 15 15 15 15 15
16 16 16 16 15 15 15 15 15 15 15 15 15 15 16 16 16 15 16 16 15 15 15 15 15 15 15 15 15 15 15 15 15 15 15 14 14 14
16 15 15 15 15 15 15 15 15 15 15 15 15 15 15 15 15 15 15 15 15 15 15 15 15 15 15 15 15 15 14 14 14 14 14 14 14 14
15 15 15 15 15 15 15 15 15 15 15 14 15 15 15 15 15 15 15 15 15 15 15 15 15 15 15 14 14 14 14 14 14 14 14 14 14 14
15 15 15 15 15 15 14 14 14 14 14 14 14 14 14 14 14 14 14 14 14 14 14 14 14 14 14 14 14 14 14 14 14 14 14 14 14 14
15 15 14 14 14 14 14 14 14 14 14 14 14 14 14 14 14 14 14 14 14 14 14 14 14 14 14 14 14 14 14 14 13 13 13 13 13 13
14 14 14 14 14 14 14 14 14 14 14 13 13 13 13 13 13 13 13 13 14 14 14 14 14 14 13 13 13 13 13 13 13 13 13 13 13 13
14 14 14 14 14 14 14 13 13 13 13 13 13 13 13 13 13 13 13 13 13 13 13 13 13 13 13 13 13 13 13 13 13 13 13 13 13 13
14 14 14 13 13 13 13 13 13 13 13 13 13 13 13 13 13 13 13 13 13 13 13 13 13 13 13 13 13 13 13 13 13 12 12 12 12 12
13 13 13 13 13 13 13 13 13 13 12 12 12 12 12 12 12 12 12 12 12 12 12 12 13 13 13 13 13 13 12 12 12 12 12 12 12 12
13 13 13 13 13 13 12 12 12 12 12 12 12 12 12 12 12 12 12 12 12 12 12 12 12 12 12 12 12 12 12 12 12 12 12 12 12 12
13 13 12 12 12 12 12 12 12 12 12 12 12 12 12 12 12 12 12 11 11 12 12 12 12 11 11 12 12 12 12 12 12 12 12 11 11 11
12 12 12 12 12 12 12 12 12 12 12 12 12 12 12 12 12 12 11 11 11 11 11 11 11 11 11 11 11 11 11 11 11 11 11 11 11 11
12 12 12 12 12 12 12 12 12 12 11 11 11 11 11 11 11 11 11 11 11 11 11 11 11 11 11 11 11 11 11 11 11 11 11 11 11 11
12 12 12 11 11 11 11 11 11 11 11 11 11 11 11 11 11 11 11 11 11 11 11 11 11 11 11 11 11 11 11 11 11 11 10 10 10 10
11 11 11 11 11 11 11 11 11 11 11 11 11 11 11 10 10 10 10 10 10 10 10 10 10 10 10 10 10 10 10 10 10 10 10 10 10 10
11 11 11 11 11 11 11 11 11 11 10 10 10 10 10 10 10 10 10 10 10 10 10 10 10 10 10 10 10 10 10 10 10 10 10 10 10 10
11 11 11 11 11 10 10 10 10 10 10 10 10 10 10 10 10 10 10 9 9 9 9 9 9 9 10 10 10 9 9 9 9 9 9 9 9 10
11 11 10 10 10 10 10 10 10 10 10 10 10 10 10 10 10 10 9 9 9 9 9 9 9 9 9 9 9 9 9 9 9 9 9 9 9 9
10 10 10 10 10 10 10 10 10 10 10 10 10 10 10 9 9 9 9 9 9 9 9 9 9 8 8 8 8 9 9 8 9 9 9 9 9 9
10 10 10 10 10 10 10 9 9 9 9 10 10 10 9 9 9 9 9 9 9 9 9 9 9 8 8 8 8 8 8 8 8 8 8 8 8 9
10 10 10 10 10 9 9 9 9 9 9 9 9 9 9 9 9 9 9 9 9 8 8 8 8 8 8 8 7 8 8 8 8 8 8 8 8 8
10 10 10 10 9 9 9 9 9 9 9 9 9 9 9 9 8 8 8 8 8 8 8 8 8 8 7 7 7 7 7 7 8 8 8 8 8 8
Wind_Speed
0 0 0 1 1 1 1 2 3 2 3 3 2 2 1 1 2 2 3 2 4 6 8 9 10 9 9 9 9 9 8 9 10 10 10 10 11 11
1 0 1 1 1 1 1 1 2 3 3 3 2 2 2 2 2 3 3 4 5 6 6 7 8 8 7 7 7 8 8 8 8 9 9 9 9 10
1 1 2 1 1 1 1 0 1 2 3 4 2 2 1 2 2 2 3 3 5 6 7 7 7 7 7 7 7 7 7 7 6 6 7 7 8 8
2 1 2 1 1 1 1 1 1 2 3 3 3 2 2 2 2 2 2 2 4 5 6 7 7 8 8 9 8 8 7 7 7 7 7 7 8 7
2 2 2 1 2 2 2 2 2 2 2 2 2 2 2 2 2 2 2 2 3 4 5 6 8 8 9 10 10 9 9 8 8 8 8 8 8 8
1 1 2 2 2 2 2 2 2 1 1 1 2 2 2 2 1 2 3 2 3 3 4 4 6 7 9 9 10 10 10 9 9 9 9 9 9 8
1 1 2 2 2 2 1 2 2 2 2 1 2 1 2 1 2 2 2 3 3 2 2 3 3 3 5 7 8 10 10 9 9 9 10 10 10 10
2 2 3 2 3 3 3 3 3 3 3 3 2 3 4 3 2 2 2 2 3 2 1 3 1 2 3 4 7 8 9 9 9 9 10 10 11 11
3 2 2 2 2 2 3 3 3 3 4 4 4 5 5 5 3 3 3 3 4 4 1 3 2 3 4 6 7 8 9 9 9 9 9 10 11 11
3 3 3 3 2 1 2 2 3 3 4 3 4 6 5 5 5 4 4 3 3 3 2 2 3 3 4 4 7 7 8 9 9 9 9 10 11 11
3 3 3 3 3 1 1 2 3 4 4 4 4 4 5 5 3 1 1 1 3 3 2 2 2 2 3 3 5 6 7 8 8 9 9 10 10 9
2 3 3 3 3 2 2 2 3 5 4 4 4 4 3 4 4 3 4 3 3 3 3 2 2 1 2 3 2 3 4 7 8 9 9 10 9 6
2 3 4 5 5 5 4 5 7 6 3 3 2 3 3 3 3 2 3 4 4 4 3 2 2 2 2 3 3 3 3 3 4 6 9 10 9 7
4 4 5 7 6 6 5 6 6 4 1 1 1 2 2 3 3 3 3 3 4 5 4 3 2 3 2 3 3 2 2 3 3 3 4 6 8 9
4 6 6 6 5 4 5 5 3 1 1 1 2 3 3 3 2 2 2 2 2 3 4 3 3 3 2 3 4 3 3 3 3 3 3 4 4 3
3 4 5 5 3 3 3 2 2 2 3 3 3 3 2 1 1 1 1 2 2 4 4 3 3 3 3 3 3 4 3 3 3 3 3 3 3 4
1 1 1 2 2 2 2 2 2 1 2 3 3 2 2 2 2 2 1 1 1 3 4 3 2 1 2 2 2 3 3 3 4 3 2 3 4 4
3 1 2 2 2 3 3 3 2 2 3 3 3 3 3 3 3 2 1 2 2 3 3 3 2 2 2 2 3 3 3 3 3 3 2 3 4 4
2 2 3 3 3 3 3 3 3 4 3 3 3 3 3 3 3 3 2 2 3 3 3 2 1 1 2 4 4 2 3 3 3 3 3 3 4 4
3 3 4 4 4 4 4 3 4 3 3 3 3 3 3 3 3 3 3 3 3 3 3 2 2 3 4 4 3 4 4 3 3 3 3 3 3 4
4 4 4 4 4 4 4 4 4 4 4 3 3 3 3 3 3 3 3 4 3 3 3 4 5 4 2 0 2 4 4 4 4 4 3 2 2 2
4 5 4 4 4 3 3 3 3 3 3 3 3 3 3 3 3 3 3 3 3 3 4 4 2 1 0 1 3 4 4 4 4 3 3 4 3 3
5 4 4 4 4 3 3 3 3 3 3 3 3 3 3 3 3 3 3 3 3 3 3 2 2 1 1 2 3 3 4 4 3 3 3 4 4 5
Wind_Direction
273 359 312 315 327 264 189 179 183 243 273 283 297 297 287 223 219 213 217 242 247 241 241 241 240 239 239 239 242 244 241 240 239 239 237 236 237 240
261 29 317 306 330 327 264 219 182 194 243 268 262 280 279 276 248 233 232 244 250 253 252 246 239 232 232 233 236 239 239 243 243 239 237 236 238 241
302 278 279 284 319 311 299 240 196 178 221 270 277 284 290 296 306 293 277 269 267 257 252 246 239 234 233 235 238 241 240 239 240 239 237 236 236 241
272 274 277 294 320 309 292 261 242 210 200 245 272 286 284 279 287 279 284 292 278 272 265 250 246 243 239 238 240 241 242 241 239 238 239 239 238 241
246 258 278 263 279 270 247 245 248 252 216 213 253 269 277 290 310 305 309 300 299 290 278 257 254 251 245 240 241 241 242 242 242 243 243 240 236 237
239 236 247 236 250 258 243 223 221 234 231 218 252 275 275 281 304 288 307 308 295 292 293 284 274 266 256 248 246 244 243 242 244 244 243 241 237 237
274 267 258 268 288 269 251 222 206 212 212 210 237 262 279 293 283 267 273 290 291 274 295 297 287 278 274 261 251 244 240 241 242 241 240 237 235 236
238 272 278 292 312 313 280 233 207 207 209 209 220 228 243 242 249 258 257 285 291 283 277 290 286 279 269 260 260 248 237 238 242 243 242 239 235 235
232 251 273 298 314 307 300 289 273 244 208 197 210 229 230 229 223 245 245 241 254 253 227 271 272 272 272 275 264 250 238 234 236 240 242 240 236 236
234 229 234 260 281 314 322 324 304 281 247 220 218 235 236 229 214 218 233 253 274 263 193 241 264 264 272 270 264 244 236 238 245 246 245 243 240 240
249 240 236 243 273 318 353 307 309 301 292 286 269 268 267 257 242 219 276 260 287 279 227 204 253 277 275 267 262 248 245 247 248 249 248 245 242 240
271 262 259 252 259 258 224 237 263 272 289 304 307 310 296 291 273 218 212 220 242 272 252 205 240 264 293 278 260 253 255 257 255 255 251 245 238 226
255 273 274 270 266 266 250 230 236 245 252 256 278 292 296 290 281 253 212 204 217 247 249 199 227 228 226 272 286 253 234 243 250 260 254 247 237 220
242 257 270 276 271 269 256 253 255 249 227 236 272 287 287 284 280 277 259 232 225 235 248 212 219 227 237 263 276 282 265 250 240 245 250 251 247 242
241 256 274 286 285 278 276 279 273 217 195 225 249 254 253 260 276 296 313 312 296 281 274 241 228 235 218 238 258 268 287 280 243 240 238 236 233 228
263 276 285 292 299 290 300 296 253 215 200 215 235 250 261 274 283 279 291 312 321 311 305 283 247 222 239 242 239 265 269 270 280 259 246 248 246 231
231 314 328 316 308 299 294 288 269 245 226 236 237 251 265 271 276 275 264 266 274 289 307 319 328 248 214 213 238 258 266 272 273 274 264 267 264 243
157 214 249 258 254 249 259 271 263 246 237 232 238 240 244 250 265 274 243 239 259 274 283 292 326 349 349 315 231 241 266 272 283 282 267 260 270 266
181 235 245 246 251 247 245 246 248 248 236 230 239 243 243 244 245 251 243 244 258 265 270 268 255 217 293 293 291 249 245 277 283 287 274 259 259 267
218 236 246 247 247 247 251 250 250 251 242 236 240 246 243 241 242 240 239 242 254 269 280 276 243 226 227 244 263 281 275 251 260 270 276 280 277 277
236 238 241 240 241 239 243 244 243 243 244 238 238 242 240 231 236 236 238 246 252 258 261 267 261 261 236 180 293 290 289 282 259 246 256 271 288 285
239 241 242 239 236 237 240 244 254 255 251 248 251 247 237 229 233 232 233 238 244 245 252 268 286 305 166 232 263 279 291 307 315 303 258 232 221 229
241 241 239 235 232 228 226 236 248 257 254 250 251 250 244 239 240 234 232 236 241 243 247 267 291 291 255 240 253 270 280 293 308 328 323 314 258 247
Height
1521 1520 1520 1519 1518 1518 1518 1518 1518 1516 1516 1515 1515 1515 1516 1516 1515 1516 1515 1515 1515 1515 1515 1515 1515 1515 1515 1516 1515 1516 1516 1516 1517 1517 1517 1518 1519 1519
1520 1519 1518 1517 1516 1516 1516 1515 1515 1515 1514 1513 1513 1513 1513 1513 1513 1513 1512 1512 1512 1512 1512 1512 1512 1512 1512 1512 1512 1512 1512 1513 1513 1513 1514 1514 1515 1516
1517 1517 1516 1515 1514 1514 1513 1513 1513 1512 1511 1511 1511 1510 1510 1510 1510 1510 1509 1509 1509 1509 1508 1508 1508 1508 1508 1508 1508 1508 1509 1509 1509 1509 1510 1510 1511 1512
1515 1514 1513 1513 1512 1511 1511 1510 1510 1509 1509 1508 1507 1507 1507 1507 1506 1506 1506 1506 1505 1505 1505 1505 1505 1504 1504 1505 1505 1505 1505 1505 1505 1506 1506 1507 1507 1507
1513 1512 1511 1510 1509 1508 1508 1507 1507 1506 1506 1505 1504 1504 1504 1504 1503 1503 1503 1502 1502 1502 1502 1501 1501 1501 1500 1500 1500 1501 1501 1501 1502 1502 1502 1503 1503 1503
1510 1509 1508 1507 1506 1505 1504 1504 1503 1503 1502 1502 1501 1501 1501 1501 1501 1500 1499 1499 1499 1499 1498 1498 1497 1497 1496 1496 1496 1496 1496 1497 1497 1498 1498 1498 1499 1499
1507 1506 1505 1504 1503 1502 1501 1500 1500 1499 1499 1499 1498 1498 1498 1498 1497 1497 1496 1496 1495 1495 1494 1494 1494 1493 1492 1492 1492 1492 1492 1492 1492 1493 1493 1494 1494 1494
1504 1503 1502 1501 1500 1498 1498 1497 1497 1496 1496 1496 1495 1495 1495 1495 1495 1494 1494 1493 1492 1492 1491 1490 1490 1489 1489 1488 1488 1488 1488 1488 1488 1488 1489 1489 1489 1490
1501 1500 1499 1498 1497 1495 1494 1494 1493 1493 1493 1493 1492 1492 1492 1492 1492 1491 1491 1490 1489 1488 1488 1487 1487 1486 1486 1485 1484 1484 1484 1484 1484 1484 1484 1484 1485 1485
1498 1497 1496 1495 1494 1493 1491 1490 1490 1489 1489 1489 1490 1489 1489 1489 1489 1488 1487 1487 1486 1486 1485 1483 1482 1482 1482 1481 1481 1480 1480 1480 1480 1480 1480 1480 1480 1480
1495 1494 1493 1492 1491 1490 1489 1487 1487 1487 1487 1487 1487 1486 1486 1486 1486 1485 1484 1483 1482 1481 1481 1480 1479 1478 1478 1477 1477 1477 1477 1476 1476 1475 1475 1475 1475 1476
1491 1490 1490 1489 1488 1487 1486 1484 1484 1484 1484 1484 1484 1483 1483 1483 1482 1482 1481 1480 1479 1478 1477 1477 1476 1475 1474 1473 1473 1473 1473 1472 1472 1471 1470 1470 1471 1471
1487 1487 1486 1485 1485 1484 1483 1482 1481 1481 1481 1481 1480 1480 1480 1479 1479 1478 1477 1477 1476 1475 1475 1474 1473 1472 1471 1470 1469 1469 1469 1468 1467 1467 1466 1466 1466 1466
1484 1483 1483 1482 1481 1481 1480 1479 1479 1479 1478 1478 1477 1477 1476 1475 1475 1475 1474 1473 1473 1472 1471 1471 1469 1469 1468 1466 1465 1465 1465 1464 1463 1462 1462 1462 1462 1462
1481 1480 1480 1479 1478 1477 1477 1476 1476 1475 1475 1475 1474 1473 1473 1473 1472 1472 1471 1470 1469 1468 1468 1467 1466 1465 1465 1463 1462 1461 1460 1459 1459 1458 1457 1457 1457 1457
1477 1476 1476 1476 1475 1474 1474 1473 1473 1472 1472 1471 1471 1471 1471 1470 1469 1469 1468 1467 1465 1465 1464 1464 1463 1462 1461 1460 1459 1457 1457 1456 1455 1454 1453 1453 1453 1452
1474 1473 1473 1472 1471 1471 1470 1470 1469 1469 1469 1468 1468 1468 1467 1467 1466 1466 1465 1464 1463 1461 1460 1460 1459 1458 1457 1456 1455 1454 1453 1452 1451 1450 1449 1448 1448 1448
1471 1470 1469 1468 1468 1467 1467 1467 1466 1466 1465 1465 1465 1464 1464 1463 1463 1462 1462 1461 1460 1458 1457 1456 1455 1454 1454 1453 1453 1451 1450 1448 1447 1447 1445 1444 1444 1444
1468 1467 1466 1466 1465 1465 1464 1464 1463 1463 1462 1462 1461 1461 1460 1460 1459 1459 1458 1457 1456 1455 1455 1454 1452 1451 1450 1448 1448 1448 1447 1445 1444 1443 1442 1441 1440 1440
1464 1464 1463 1463 1462 1462 1461 1460 1460 1459 1459 1458 1457 1457 1456 1456 1455 1455 1454 1454 1453 1452 1451 1450 1449 1448 1447 1446 1444 1444 1444 1442 1441 1439 1438 1438 1437 1437
1461 1460 1460 1459 1459 1458 1457 1456 1456 1455 1454 1454 1453 1453 1452 1452 1451 1450 1450 1450 1449 1448 1447 1446 1446 1445 1444 1443 1441 1439 1439 1439 1438 1436 1435 1434 1433 1433
1457 1457 1456 1456 1455 1454 1453 1452 1451 1451 1450 1450 1449 1448 1448 1447 1447 1446 1446 1446 1445 1445 1444 1443 1442 1441 1440 1439 1437 1436 1435 1435 1435 1434 1433 1432 1431 1430
1453 1452 1452 1451 1451 1450 1449 1449 1448 1447 1446 1446 1445 1444 1444 1443 1442 1442 1442 1441 1441 1441 1440 1439 1439 1438 1437 1436 1435 1433 1432 1431 1431 1430 1430 1429 1428 1428